Torna al catalogo

SL-12 DEB

AttivoHEO
NORAD 27958·DEBRIS·🇷🇺 Russia

Lanciato Sep 16, 1987 da Baikonur Cosmodrome

Loading…

Prossimi Passaggi (prossime 24 ore)

TLE

AggiornatoSource: Space-Track

Epoca: Sep 11, 2026, 23:32 UTC

1 27958U 87079AX  26254.98088078  .00076375  00000-0  31581-1 0  9996
2 27958  65.2014 245.8152 4205629 312.6945  18.7952  6.86012342 11811

Traccia SL-12 DEB in tempo reale con AllMySat

Download on the App Store